Time,TemperatureF,DewpointF,PressureIn,WindDirection,WindDirectionDegrees,WindSpeedMPH,WindSpeedGustMPH,Humidity,HourlyPrecipIn,Conditions,Clouds,dailyrainin,SoftwareType,DateUTC
2013-04-05 00:00:00,45.4,25.8,29.97,SSE,156,10.0,14.0,46,0.00,BKN,,0.00,WeatherDisplay:10.37,2013-04-05 04:00:00,
2013-04-05 00:10:00,45.3,25.7,29.97,SSE,152,8.0,14.0,46,0.00,BKN,,0.00,WeatherDisplay:10.37,2013-04-05 04:10:00,
2013-04-05 00:30:00,44.8,25.8,29.96,SSE,150,3.0,9.0,47,0.00,BKN,,0.00,WeatherDisplay:10.37,2013-04-05 04:30:00,
2013-04-05 00:40:00,44.6,25.6,29.96,SSE,155,7.0,11.0,47,0.00,BKN,,0.00,WeatherDisplay:10.37,2013-04-05 04:40:00,
2013-04-05 00:50:00,44.6,25.6,29.96,SSE,150,6.0,14.0,47,0.00,BKN,,0.00,WeatherDisplay:10.37,2013-04-05 04:50:00,
2013-04-05 01:00:00,44.5,26.0,29.96,SSE,156,5.0,11.0,48,0.00,BKN,,0.00,WeatherDisplay:10.37,2013-04-05 05:00:00,
2013-04-05 01:10:00,44.3,25.8,29.95,SSE,156,5.0,12.0,48,0.00,BKN,,0.00,WeatherDisplay:10.37,2013-04-05 05:10:00,
2013-04-05 01:20:00,44.2,26.2,29.95,SSE,155,9.0,15.0,49,0.00,BKN,,0.00,WeatherDisplay:10.37,2013-04-05 05:20:00,
2013-04-05 01:30:00,44.0,26.0,29.95,SSE,153,10.0,12.0,49,0.00,BKN,,0.00,WeatherDisplay:10.37,2013-04-05 05:30:00,
2013-04-05 01:40:00,43.9,25.9,29.95,SSE,150,10.0,11.0,49,0.00,BKN,,0.00,WeatherDisplay:10.37,2013-04-05 05:40:00,
2013-04-05 01:50:00,43.6,26.2,29.95,SSE,164,9.0,12.0,50,0.00,BKN,,0.00,WeatherDisplay:10.37,2013-04-05 05:50:00,
2013-04-05 02:00:00,43.2,25.8,29.94,SSE,160,6.0,11.0,50,0.00,BKN,,0.00,WeatherDisplay:10.37,2013-04-05 06:00:00,
2013-04-05 02:10:00,43.2,26.2,29.94,SSE,150,8.0,12.0,51,0.00,BKN,,0.00,WeatherDisplay:10.37,2013-04-05 06:10:00,
2013-04-05 02:20:00,42.9,26.0,29.93,SSE,150,8.0,11.0,51,0.00,BKN,,0.00,WeatherDisplay:10.37,2013-04-05 06:20:00,
2013-04-05 02:30:00,42.8,25.9,29.93,SSE,151,9.0,15.0,51,0.00,BKN,,0.00,WeatherDisplay:10.37,2013-04-05 06:30:00,
2013-04-05 02:40:00,42.6,25.7,29.92,SSE,151,8.0,18.0,51,0.00,BKN,,0.00,WeatherDisplay:10.37,2013-04-05 06:40:00,
2013-04-05 02:50:00,42.4,25.5,29.93,SSE,156,6.0,12.0,51,0.00,BKN,,0.00,WeatherDisplay:10.37,2013-04-05 06:50:00,
2013-04-05 03:00:00,42.3,25.4,29.93,SSE,149,10.0,12.0,51,0.00,BKN,,0.00,WeatherDisplay:10.37,2013-04-05 07:00:00,
2013-04-05 03:20:00,41.8,24.9,29.92,SSE,155,5.0,11.0,51,0.00,BKN,,0.00,WeatherDisplay:10.37,2013-04-05 07:20:00,
2013-04-05 03:30:00,41.8,24.5,29.92,SSE,150,8.0,12.0,50,0.00,BKN,,0.00,WeatherDisplay:10.37,2013-04-05 07:30:00,
2013-04-05 03:40:00,41.5,24.2,29.92,SSE,153,8.0,11.0,50,0.00,BKN,,0.00,WeatherDisplay:10.37,2013-04-05 07:40:00,
2013-04-05 03:50:00,41.1,23.9,29.92,SE,139,6.0,11.0,50,0.00,BKN,,0.00,WeatherDisplay:10.37,2013-04-05 07:50:00,
2013-04-05 04:10:00,40.5,23.8,29.91,SSE,150,6.0,8.0,51,0.00,SCT,,0.00,WeatherDisplay:10.37,2013-04-05 08:10:00,
2013-04-05 04:20:00,40.6,23.9,29.91,SE,140,5.0,12.0,51,0.00,SCT,,0.00,WeatherDisplay:10.37,2013-04-05 08:20:00,
2013-04-05 04:30:00,40.6,23.4,29.91,SSE,149,9.0,11.0,50,0.00,SCT,,0.00,WeatherDisplay:10.37,2013-04-05 08:30:00,
2013-04-05 04:40:00,40.3,23.2,29.91,SE,144,9.0,9.0,50,0.00,SCT,,0.00,WeatherDisplay:10.37,2013-04-05 08:40:00,
2013-04-05 04:50:00,40.4,23.7,29.91,SE,144,9.0,11.0,51,0.00,SCT,,0.00,WeatherDisplay:10.37,2013-04-05 08:50:00,
2013-04-05 05:10:00,39.9,23.2,29.90,SE,141,7.0,12.0,51,0.00,BKN,,0.00,WeatherDisplay:10.37,2013-04-05 09:10:00,
2013-04-05 05:20:00,39.7,23.0,29.90,SE,146,2.0,11.0,51,0.00,BKN,,0.00,WeatherDisplay:10.37,2013-04-05 09:20:00,
2013-04-05 05:30:00,39.0,22.8,29.89,SE,140,2.0,6.0,52,0.00,BKN,,0.00,WeatherDisplay:10.37,2013-04-05 09:30:00,
2013-04-05 05:40:00,38.7,22.6,29.89,SE,143,2.0,6.0,52,0.00,BKN,,0.00,WeatherDisplay:10.37,2013-04-05 09:40:00,
2013-04-05 05:50:00,38.1,22.5,29.89,SE,143,2.0,5.0,53,0.00,BKN,,0.00,WeatherDisplay:10.37,2013-04-05 09:50:00,
2013-04-05 06:00:00,37.5,22.4,29.89,SE,143,1.0,5.0,54,0.00,BKN,,0.00,WeatherDisplay:10.37,2013-04-05 10:00:00,
2013-04-05 06:10:00,37.5,22.3,29.89,SE,140,6.0,6.0,54,0.00,BKN,,0.00,WeatherDisplay:10.37,2013-04-05 10:10:00,
2013-04-05 06:20:00,37.7,22.5,29.90,SSE,150,5.0,6.0,54,0.00,BKN,,0.00,WeatherDisplay:10.37,2013-04-05 10:20:00,
2013-04-05 06:30:00,37.7,22.5,29.90,SSE,159,2.0,5.0,54,0.00,BKN,,0.00,WeatherDisplay:10.37,2013-04-05 10:30:00,
2013-04-05 06:40:00,37.5,22.4,29.90,SSE,164,6.0,6.0,54,0.00,BKN,,0.00,WeatherDisplay:10.37,2013-04-05 10:40:00,
2013-04-05 06:50:00,37.7,22.5,29.90,SE,140,2.0,6.0,54,0.00,BKN,,0.00,WeatherDisplay:10.37,2013-04-05 10:50:00,
2013-04-05 07:00:00,37.7,22.5,29.90,SSE,147,7.0,7.0,54,0.00,BKN,,0.00,WeatherDisplay:10.37,2013-04-05 11:00:00,
2013-04-05 07:10:00,37.7,23.0,29.90,SSE,154,2.0,8.0,55,0.00,BKN,,0.00,WeatherDisplay:10.37,2013-04-05 11:10:00,
2013-04-05 07:20:00,37.9,23.2,29.90,SE,144,5.0,6.0,55,0.00,BKN,,0.00,WeatherDisplay:10.37,2013-04-05 11:20:00,
2013-04-05 07:30:00,38.9,23.2,29.91,SSE,162,2.0,6.0,53,0.00,BKN,,0.00,WeatherDisplay:10.37,2013-04-05 11:30:00,
2013-04-05 07:40:00,39.6,23.4,29.90,South,183,3.0,8.0,52,0.00,BKN,,0.00,WeatherDisplay:10.37,2013-04-05 11:40:00,
2013-04-05 07:50:00,39.6,23.4,29.90,South,175,3.0,8.0,52,0.00,BKN,,0.00,WeatherDisplay:10.37,2013-04-05 11:50:00,
2013-04-05 08:00:00,39.8,24.0,29.90,SSW,195,3.0,6.0,53,0.00,BKN,,0.00,WeatherDisplay:10.37,2013-04-05 12:00:00,
2013-04-05 08:10:00,40.2,24.0,29.90,South,170,6.0,9.0,52,0.00,SCT,,0.00,WeatherDisplay:10.37,2013-04-05 12:10:00,
2013-04-05 08:20:00,40.9,24.1,29.90,South,169,2.0,6.0,51,0.00,SCT,,0.00,WeatherDisplay:10.37,2013-04-05 12:20:00,
2013-04-05 08:30:00,42.1,24.3,29.90,South,172,6.0,12.0,49,0.00,SCT,,0.00,WeatherDisplay:10.37,2013-04-05 12:30:00,
2013-04-05 08:40:00,42.6,24.3,29.89,South,173,10.0,12.0,48,0.00,SCT,,0.00,WeatherDisplay:10.37,2013-04-05 12:40:00,
2013-04-05 08:50:00,42.8,24.5,29.89,South,172,5.0,11.0,48,0.00,SCT,,0.00,WeatherDisplay:10.37,2013-04-05 12:50:00,
2013-04-05 09:00:00,44.1,24.6,29.88,South,172,6.0,9.0,46,0.00,BKN,,0.00,WeatherDisplay:10.37,2013-04-05 13:00:00,
2013-04-05 09:10:00,45.2,24.6,29.87,SSE,148,3.0,8.0,44,0.00,BKN,,0.00,WeatherDisplay:10.37,2013-04-05 13:10:00,
2013-04-05 09:20:00,45.1,23.4,29.87,SSE,156,3.0,8.0,42,0.00,BKN,,0.00,WeatherDisplay:10.37,2013-04-05 13:20:00,
2013-04-05 09:30:00,45.6,23.8,29.87,SSE,155,2.0,9.0,42,0.00,BKN,,0.00,WeatherDisplay:10.37,2013-04-05 13:30:00,
2013-04-05 10:00:00,48.0,23.6,29.86,WSW,246,6.0,9.0,38,0.00,SCT,,0.00,WeatherDisplay:10.37,2013-04-05 14:00:00,
2013-04-05 10:10:00,48.1,23.0,29.85,SW,214,6.0,8.0,37,0.00,SCT,,0.00,WeatherDisplay:10.37,2013-04-05 14:10:00,
2013-04-05 10:20:00,48.8,23.7,29.85,SW,235,5.0,9.0,37,0.00,SCT,,0.00,WeatherDisplay:10.37,2013-04-05 14:20:00,
2013-04-05 10:30:00,49.6,21.6,29.85,NW,308,8.0,17.0,33,0.00,SCT,,0.00,WeatherDisplay:10.37,2013-04-05 14:30:00,
2013-04-05 10:40:00,49.5,20.8,29.85,West,263,10.0,15.0,32,0.00,SCT,,0.00,WeatherDisplay:10.37,2013-04-05 14:40:00,
2013-04-05 11:00:00,51.6,21.9,29.85,WSW,248,7.0,12.0,31,0.00,SCT,,0.00,WeatherDisplay:10.37,2013-04-05 15:00:00,
2013-04-05 11:10:00,51.7,22.8,29.84,NNW,337,3.0,14.0,32,0.00,BKN,,0.00,WeatherDisplay:10.37,2013-04-05 15:10:00,
2013-04-05 11:20:00,51.5,24.0,29.85,WNW,299,8.0,20.0,34,0.00,BKN,,0.00,WeatherDisplay:10.37,2013-04-05 15:20:00,
2013-04-05 11:30:00,52.1,23.1,29.84,NW,323,2.0,18.0,32,0.00,BKN,,0.00,WeatherDisplay:10.37,2013-04-05 15:30:00,
2013-04-05 11:40:00,51.0,22.1,29.84,WNW,298,9.0,18.0,32,0.00,BKN,,0.00,WeatherDisplay:10.37,2013-04-05 15:40:00,
2013-04-05 11:50:00,50.4,23.7,29.84,NW,317,9.0,20.0,35,0.00,BKN,,0.00,WeatherDisplay:10.37,2013-04-05 15:50:00,
2013-04-05 12:00:00,50.6,24.6,29.83,NW,322,16.0,20.0,36,0.00,BKN,,0.00,WeatherDisplay:10.37,2013-04-05 16:00:00,
2013-04-05 12:10:00,51.9,25.7,29.83,WNW,292,3.0,14.0,36,0.00,BKN,,0.00,WeatherDisplay:10.37,2013-04-05 16:10:00,
2013-04-05 12:20:00,52.6,26.4,29.83,West,281,7.0,17.0,36,0.00,BKN,,0.00,WeatherDisplay:10.37,2013-04-05 16:20:00,
2013-04-05 12:30:00,52.3,27.4,29.82,WNW,283,14.0,20.0,38,0.00,BKN,,0.00,WeatherDisplay:10.37,2013-04-05 16:30:00,
2013-04-05 12:40:00,52.8,28.5,29.82,NW,305,15.0,18.0,39,0.00,BKN,,0.00,WeatherDisplay:10.37,2013-04-05 16:40:00,
2013-04-05 12:50:00,54.3,31.1,29.81,NW,312,10.0,23.0,41,0.00,BKN,,0.00,WeatherDisplay:10.37,2013-04-05 16:50:00,
2013-04-05 13:00:00,53.3,28.9,29.81,WNW,295,10.0,21.0,39,0.00,BKN,,0.00,WeatherDisplay:10.37,2013-04-05 17:00:00,
2013-04-05 13:10:00,53.6,29.2,29.81,NW,311,12.0,23.0,39,0.00,SCT,,0.00,WeatherDisplay:10.37,2013-04-05 17:10:00,
2013-04-05 13:20:00,53.9,29.5,29.81,WNW,297,15.0,32.0,39,0.00,SCT,,0.00,WeatherDisplay:10.37,2013-04-05 17:20:00,
2013-04-05 13:30:00,53.2,28.9,29.80,West,278,13.0,30.0,39,0.00,SCT,,0.00,WeatherDisplay:10.37,2013-04-05 17:30:00,
2013-04-05 13:40:00,52.6,27.7,29.80,WNW,302,20.0,30.0,38,0.00,SCT,,0.00,WeatherDisplay:10.37,2013-04-05 17:40:00,
2013-04-05 13:50:00,53.3,28.9,29.80,NW,304,16.0,25.0,39,0.00,SCT,,0.00,WeatherDisplay:10.37,2013-04-05 17:50:00,
2013-04-05 14:00:00,52.5,27.0,29.79,NW,307,22.0,29.0,37,0.00,SCT,,0.00,WeatherDisplay:10.37,2013-04-05 18:00:00,
2013-04-05 14:10:00,53.4,29.7,29.79,NW,308,8.0,27.0,40,0.00,SCT,,0.00,WeatherDisplay:10.37,2013-04-05 18:10:00,
2013-04-05 14:20:00,53.3,27.7,29.79,WNW,298,9.0,29.0,37,0.00,SCT,,0.00,WeatherDisplay:10.37,2013-04-05 18:20:00,
2013-04-05 14:30:00,53.1,27.5,29.78,WNW,282,26.0,36.0,37,0.00,SCT,,0.00,WeatherDisplay:10.37,2013-04-05 18:30:00,
2013-04-05 14:40:00,52.6,27.7,29.78,WNW,289,18.0,35.0,38,0.00,SCT,,0.00,WeatherDisplay:10.37,2013-04-05 18:40:00,
2013-04-05 14:50:00,53.2,28.2,29.78,WNW,288,21.0,25.0,38,0.00,SCT,,0.00,WeatherDisplay:10.37,2013-04-05 18:50:00,
2013-04-05 15:00:00,52.8,28.5,29.77,WNW,293,24.0,35.0,39,0.00,SCT,,0.00,WeatherDisplay:10.37,2013-04-05 19:00:00,
2013-04-05 15:10:00,53.5,27.1,29.78,WNW,295,20.0,29.0,36,0.00,FEW,,0.00,WeatherDisplay:10.37,2013-04-05 19:10:00,
2013-04-05 15:20:00,52.8,27.2,29.78,WNW,291,17.0,36.0,37,0.00,FEW,,0.00,WeatherDisplay:10.37,2013-04-05 19:20:00,
2013-04-05 15:30:00,52.8,27.2,29.78,WNW,287,16.0,27.0,37,0.00,FEW,,0.00,WeatherDisplay:10.37,2013-04-05 19:30:00,
2013-04-05 15:40:00,53.1,28.1,29.78,WNW,295,20.0,23.0,38,0.00,FEW,,0.00,WeatherDisplay:10.37,2013-04-05 19:40:00,
2013-04-05 16:00:00,52.7,26.5,29.78,West,263,15.0,24.0,36,0.00,FEW,,0.00,WeatherDisplay:10.37,2013-04-05 20:00:00,
2013-04-05 16:10:00,52.5,26.3,29.78,WNW,291,20.0,27.0,36,0.00,FEW,,0.00,WeatherDisplay:10.37,2013-04-05 20:10:00,
2013-04-05 16:20:00,52.2,26.6,29.78,WNW,294,15.0,27.0,37,0.00,FEW,,0.00,WeatherDisplay:10.37,2013-04-05 20:20:00,
2013-04-05 16:30:00,51.9,25.8,29.78,West,278,25.0,29.0,36,0.00,FEW,,0.00,WeatherDisplay:10.37,2013-04-05 20:30:00,
2013-04-05 16:40:00,51.9,25.8,29.79,WNW,284,21.0,30.0,36,0.00,FEW,,0.00,WeatherDisplay:10.37,2013-04-05 20:40:00,
2013-04-05 16:50:00,51.8,26.3,29.79,WNW,296,12.0,29.0,37,0.00,FEW,,0.00,WeatherDisplay:10.37,2013-04-05 20:50:00,
2013-04-05 17:00:00,51.4,26.0,29.80,West,278,16.0,27.0,37,0.00,FEW,,0.00,WeatherDisplay:10.37,2013-04-05 21:00:00,
2013-04-05 17:10:00,51.2,26.4,29.80,WNW,287,16.0,32.0,38,0.00,FEW,,0.00,WeatherDisplay:10.37,2013-04-05 21:10:00,
2013-04-05 17:20:00,50.4,25.7,29.81,WNW,290,24.0,33.0,38,0.00,FEW,,0.00,WeatherDisplay:10.37,2013-04-05 21:20:00,
2013-04-05 17:30:00,49.6,25.0,29.81,West,281,13.0,30.0,38,0.00,FEW,,0.00,WeatherDisplay:10.37,2013-04-05 21:30:00,
2013-04-05 17:40:00,49.3,24.7,29.81,West,276,12.0,36.0,38,0.00,FEW,,0.00,WeatherDisplay:10.37,2013-04-05 21:40:00,
2013-04-05 17:50:00,48.5,25.3,29.82,WNW,282,15.0,35.0,40,0.00,FEW,,0.00,WeatherDisplay:10.37,2013-04-05 21:50:00,
2013-04-05 18:00:00,48.2,25.6,29.82,West,277,10.0,32.0,41,0.00,FEW,,0.00,WeatherDisplay:10.37,2013-04-05 22:00:00,
2013-04-05 18:10:00,47.4,25.4,29.83,WNW,284,25.0,35.0,42,0.00,FEW,,0.00,WeatherDisplay:10.37,2013-04-05 22:10:00,
2013-04-05 18:20:00,46.6,25.8,29.84,West,278,16.0,25.0,44,0.00,FEW,,0.00,WeatherDisplay:10.37,2013-04-05 22:20:00,
2013-04-05 18:30:00,46.3,26.1,29.85,WNW,300,22.0,29.0,45,0.00,FEW,,0.00,WeatherDisplay:10.37,2013-04-05 22:30:00,
2013-04-05 18:40:00,45.2,27.6,29.86,WNW,296,23.0,43.0,50,0.00,FEW,,0.00,WeatherDisplay:10.37,2013-04-05 22:40:00,
2013-04-05 18:50:00,44.6,28.0,29.87,WNW,290,13.0,29.0,52,0.00,FEW,,0.00,WeatherDisplay:10.37,2013-04-05 22:50:00,
2013-04-05 19:00:00,44.1,28.5,29.88,WNW,300,21.0,29.0,54,0.00,FEW,,0.00,WeatherDisplay:10.37,2013-04-05 23:00:00,
2013-04-05 19:10:00,43.3,28.6,29.88,WNW,294,18.0,27.0,56,0.00,FEW,,0.00,WeatherDisplay:10.37,2013-04-05 23:10:00,
2013-04-05 19:20:00,42.7,28.1,29.89,WNW,291,14.0,27.0,56,0.00,FEW,,0.00,WeatherDisplay:10.37,2013-04-05 23:20:00,
2013-04-05 19:30:00,42.3,28.1,29.90,West,275,20.0,25.0,57,0.00,FEW,,0.00,WeatherDisplay:10.37,2013-04-05 23:30:00,
2013-04-05 19:40:00,41.8,28.1,29.90,WNW,291,21.0,25.0,58,0.00,FEW,,0.00,WeatherDisplay:10.37,2013-04-05 23:40:00,
2013-04-05 19:50:00,41.5,28.6,29.91,West,272,16.0,27.0,60,0.00,FEW,,0.00,WeatherDisplay:10.37,2013-04-05 23:50:00,
2013-04-05 20:00:00,41.1,29.8,29.91,West,276,14.0,29.0,64,0.00,FEW,,0.00,WeatherDisplay:10.37,2013-04-06 00:00:00,
2013-04-05 20:10:00,40.6,29.8,29.92,WNW,283,13.0,18.0,65,0.00,BKN,,0.00,WeatherDisplay:10.37,2013-04-06 00:10:00,
2013-04-05 20:20:00,40.4,29.9,29.92,West,281,9.0,32.0,66,0.00,BKN,,0.00,WeatherDisplay:10.37,2013-04-06 00:20:00,
2013-04-05 20:30:00,39.8,29.7,29.93,WNW,288,13.0,23.0,67,0.00,BKN,,0.00,WeatherDisplay:10.37,2013-04-06 00:30:00,
2013-04-05 20:40:00,39.5,29.8,29.94,West,278,15.0,20.0,68,0.00,BKN,,0.00,WeatherDisplay:10.37,2013-04-06 00:40:00,
2013-04-05 20:50:00,39.4,29.7,29.94,WNW,292,10.0,23.0,68,0.00,BKN,,0.00,WeatherDisplay:10.37,2013-04-06 00:50:00,
2013-04-05 21:00:00,39.2,30.9,29.95,WNW,297,17.0,25.0,72,0.00,BKN,,0.00,WeatherDisplay:10.37,2013-04-06 01:00:00,
2013-04-05 21:10:00,38.5,31.3,29.95,WNW,290,9.0,18.0,75,0.00,BKN,,0.00,WeatherDisplay:10.37,2013-04-06 01:10:00,
2013-04-05 21:20:00,38.0,31.4,29.96,WNW,283,8.0,17.0,77,0.00,BKN,,0.00,WeatherDisplay:10.37,2013-04-06 01:20:00,
2013-04-05 21:30:00,37.7,31.5,29.96,WNW,292,10.0,17.0,78,0.00,BKN,,0.00,WeatherDisplay:10.37,2013-04-06 01:30:00,
2013-04-05 21:40:00,37.6,31.3,29.96,WNW,286,7.0,15.0,78,0.00,BKN,,0.00,WeatherDisplay:10.37,2013-04-06 01:40:00,
2013-04-05 21:50:00,37.5,30.9,29.97,WNW,284,8.0,18.0,77,0.00,BKN,,0.00,WeatherDisplay:10.37,2013-04-06 01:50:00,
2013-04-05 22:00:00,37.5,30.6,29.97,WNW,287,13.0,21.0,76,0.00,BKN,,0.00,WeatherDisplay:10.37,2013-04-06 02:00:00,
2013-04-05 22:10:00,37.3,30.7,29.98,WNW,291,14.0,17.0,77,0.00,BKN,,0.00,WeatherDisplay:10.37,2013-04-06 02:10:00,
2013-04-05 22:20:00,36.9,30.6,29.98,West,281,8.0,15.0,78,0.00,BKN,,0.00,WeatherDisplay:10.37,2013-04-06 02:20:00,
2013-04-05 22:30:00,36.5,30.3,29.98,WNW,286,6.0,24.0,78,0.00,BKN,,0.00,WeatherDisplay:10.37,2013-04-06 02:30:00,
2013-04-05 22:40:00,36.4,29.9,29.98,WNW,301,10.0,20.0,77,0.00,BKN,,0.00,WeatherDisplay:10.37,2013-04-06 02:40:00,
2013-04-05 22:50:00,36.9,29.4,29.98,WNW,296,13.0,24.0,74,0.00,BKN,,0.00,WeatherDisplay:10.37,2013-04-06 02:50:00,
2013-04-05 23:00:00,37.1,29.2,29.98,NW,304,20.0,27.0,73,0.00,BKN,,0.00,WeatherDisplay:10.37,2013-04-06 03:00:00,
2013-04-05 23:10:00,36.8,29.3,29.98,WNW,288,15.0,24.0,74,0.00,BKN,,0.00,WeatherDisplay:10.37,2013-04-06 03:10:00,
2013-04-05 23:20:00,36.8,29.6,29.98,WNW,291,20.0,20.0,75,0.00,BKN,,0.00,WeatherDisplay:10.37,2013-04-06 03:20:00,
2013-04-05 23:30:00,36.7,29.2,29.98,NW,307,14.0,18.0,74,0.00,BKN,,0.00,WeatherDisplay:10.37,2013-04-06 03:30:00,
2013-04-05 23:40:00,36.5,29.3,29.99,WNW,301,12.0,24.0,75,0.00,BKN,,0.00,WeatherDisplay:10.37,2013-04-06 03:40:00,
2013-04-05 23:50:00,36.5,29.3,29.99,WNW,296,8.0,17.0,75,0.00,BKN,,0.00,WeatherDisplay:10.37,2013-04-06 03:50:00,